| time (UTC) | temp C | wind direction | speed KPH | gust KPH | rain 1hr cm | rain 24hr cm | rain mn cm | humidity % | barometer mb |
| 20260906174316 | 17 | 161 | 0.0 | 0.0 | 0.48 | 0.46 | 0.46 | 96 | 1020.8 |
| 20260906173811 | 17 | 148 | 0.0 | 0.0 | 0.30 | 0.41 | 0.41 | 96 | 1020.5 |
| 20260906173306 | 17 | 186 | 0.0 | 1.6 | 0.48 | 0.38 | 0.38 | 96 | 1020.6 |
| 20260906172805 | 17 | 175 | 1.6 | 1.6 | 0.66 | 0.36 | 0.36 | 96 | 1020.6 |
| 20260906172305 | 17 | 174 | 0.0 | 0.0 | 0.30 | 0.28 | 0.28 | 97 | 1020.5 |
| 20260906171756 | 17 | 139 | 0.0 | 0.0 | 0.30 | 0.25 | 0.25 | 96 | 1020.2 |
| 20260906171251 | 17 | 139 | 0.0 | 0.0 | 0.30 | 0.23 | 0.23 | 96 | 1020.5 |
| 20260906170747 | 17 | 143 | 0.0 | 0.0 | 0.43 | 0.20 | 0.20 | 96 | 1020.3 |
| 20260906170242 | 17 | 146 | 0.0 | 0.0 | 0.30 | 0.15 | 0.15 | 95 | 1020.2 |
| 20260906165738 | 17 | 160 | 0.0 | 1.6 | 0.30 | 0.13 | 0.13 | 94 | 1020.2 |
| 20260906165238 | 17 | 189 | 1.6 | 3.2 | 0.43 | 0.10 | 0.10 | 92 | 1019.9 |
| 20260906164738 | 18 | 127 | 1.6 | 1.6 | 0.13 | 0.05 | 0.05 | 90 | 1019.7 |
| 20260906164233 | 18 | 119 | 3.2 | 3.2 | 0.00 | 0.03 | 0.03 | 88 | 1019.4 |
| 20260906163729 | 18 | 136 | 0.0 | 0.0 | 0.00 | 0.03 | 0.03 | 88 | 1019.4 |
| 20260906163225 | 18 | 146 | 0.0 | 0.0 | 0.18 | 0.03 | 0.03 | 88 | 1019.4 |
| 20260906162721 | 18 | 149 | 0.0 | 1.6 | 0.18 | 0.03 | 0.03 | 86 | 1019.9 |
| 20260906162216 | 18 | 185 | 0.0 | 1.6 | 0.00 | 0.00 | 0.00 | 87 | 1019.7 |
| 20260906161711 | 17 | 146 | 1.6 | 9.7 | 0.00 | 0.00 | 0.00 | 87 | 1019.6 |
| 20260906161210 | 18 | 143 | 0.0 | 3.2 | 0.00 | 0.00 | 0.00 | 86 | 1019.4 |
| 20260906160709 | 18 | 140 | 0.0 | 11.3 | 0.00 | 0.00 | 0.00 | 86 | 1019.4 |
| 20260906160209 | 17 | 150 | 0.0 | 3.2 | 0.00 | 0.00 | 0.00 | 85 | 1019.2 |
| 20260906155706 | 17 | 180 | 3.2 | 4.8 | 0.00 | 0.00 | 0.00 | 86 | 1019.1 |
| 20260906155202 | 18 | 177 | 1.6 | 11.3 | 0.00 | 0.00 | 0.00 | 85 | 1018.8 |
| 20260906154657 | 18 | 103 | 6.4 | 11.3 | 0.00 | 0.00 | 0.00 | 81 | 1018.4 |
| 20260906154156 | 18 | 96 | 1.6 | 12.9 | 0.00 | 0.00 | 0.00 | 80 | 1018.1 |
| 20260906153655 | 18 | 149 | 4.8 | 4.8 | 0.00 | 0.00 | 0.00 | 81 | 1018.4 |
| 20260906153150 | 18 | 141 | 0.0 | 4.8 | 0.00 | 0.00 | 0.00 | 83 | 1018.2 |
| 20260906152645 | 18 | 136 | 1.6 | 4.8 | 0.00 | 0.00 | 0.00 | 80 | 1018.4 |
| 20260906152139 | 17 | 130 | 4.8 | 11.3 | 0.00 | 0.00 | 0.00 | 79 | 1018.3 |
| 20260906151634 | 17 | 89 | 3.2 | 14.5 | 0.00 | 0.00 | 0.00 | 79 | 1018.1 |
| 20260906151130 | 17 | 140 | 3.2 | 4.8 | 0.00 | 0.00 | 0.00 | 79 | 1018.1 |
| 20260906150625 | 17 | 129 | 1.6 | 6.4 | 0.00 | 0.00 | 0.00 | 79 | 1018.3 |
| 20260906150120 | 17 | 130 | 4.8 | 12.9 | 0.00 | 0.00 | 0.00 | 79 | 1018.1 |
| 20260906145619 | 17 | 89 | 3.2 | 6.4 | 0.00 | 0.00 | 0.00 | 79 | 1018.0 |
| 20260906145114 | 18 | 177 | 4.8 | 11.3 | 0.00 | 0.00 | 0.00 | 77 | 1018.1 |
| 20260906144608 | 18 | 138 | 1.6 | 4.8 | 0.00 | 0.00 | 0.00 | 74 | 1018.1 |
| 20260906144103 | 18 | 148 | 1.6 | 4.8 | 0.00 | 0.00 | 0.00 | 73 | 1018.0 |
| 20260906143558 | 18 | 146 | 1.6 | 6.4 | 0.00 | 0.00 | 0.00 | 72 | 1018.0 |
| 20260906143055 | 18 | 110 | 3.2 | 4.8 | 0.00 | 0.00 | 0.00 | 69 | 1017.7 |
| 20260906142553 | 19 | 172 | 3.2 | 6.4 | 0.00 | 0.00 | 0.00 | 68 | 1017.6 |
| 20260906142049 | 19 | 113 | 1.6 | 3.2 | 0.00 | 0.00 | 0.00 | 67 | 1017.7 |
| 20260906141548 | 20 | 156 | 1.6 | 9.7 | 0.00 | 0.00 | 0.00 | 66 | 1017.6 |
| 20260906141044 | 20 | 169 | 1.6 | 4.8 | 0.00 | 0.00 | 0.00 | 64 | 1017.4 |
| 20260906140543 | 20 | 157 | 1.6 | 3.2 | 0.00 | 0.00 | 0.00 | 60 | 1017.6 |
| 20260906140037 | 21 | 149 | 4.8 | 12.9 | 0.00 | 0.00 | 0.00 | 59 | 1017.6 |
| 20260906135534 | 21 | 125 | 1.6 | 3.2 | 0.00 | 0.00 | 0.00 | 60 | 1017.5 |
| 20260906135030 | 21 | 133 | 1.6 | 4.8 | 0.00 | 0.00 | 0.00 | 59 | 1017.4 |
| 20260906134525 | 21 | 144 | 3.2 | 4.8 | 0.00 | 0.00 | 0.00 | 59 | 1017.3 |
| 20260906134020 | 21 | 103 | 1.6 | 9.7 | 0.00 | 0.00 | 0.00 | 59 | 1017.3 |
| 20260906133516 | 21 | 208 | 4.8 | 11.3 | 0.00 | 0.00 | 0.00 | 57 | 1017.4 |
| 20260906133011 | 21 | 144 | 3.2 | 11.3 | 0.00 | 0.00 | 0.00 | 55 | 1017.5 |
| 20260906132507 | 21 | 162 | 0.0 | 0.0 | 0.00 | 0.00 | 0.00 | 54 | 1017.5 |
| 20260906132002 | 21 | 131 | 0.0 | 0.0 | 0.00 | 0.00 | 0.00 | 55 | 1017.2 |
| 20260906131457 | 20 | 112 | 0.0 | 0.0 | 0.00 | 0.00 | 0.00 | 57 | 1017.2 |
| 20260906130952 | 20 | 132 | 0.0 | 0.0 | 0.00 | 0.00 | 0.00 | 59 | 1017.3 |
| 20260906130451 | 20 | 120 | 0.0 | 0.0 | 0.00 | 0.00 | 0.00 | 62 | 1017.0 |
| 20260906125946 | 20 | 129 | 0.0 | 0.0 | 0.00 | 0.00 | 0.00 | 62 | 1017.1 |
| 20260906125444 | 20 | 118 | 0.0 | 0.0 | 0.00 | 0.00 | 0.00 | 64 | 1017.0 |
| 20260906124943 | 20 | 135 | 0.0 | 0.0 | 0.00 | 0.00 | 0.00 | 66 | 1017.2 |
| 20260906124439 | 20 | 136 | 0.0 | 0.0 | 0.00 | 0.00 | 0.00 | 65 | 1017.2 |
| 20260906123939 | 19 | 127 | 0.0 | 0.0 | 0.00 | 0.00 | 0.00 | 68 | 1017.1 |
| 20260906123433 | 19 | 135 | 0.0 | 0.0 | 0.00 | 0.00 | 0.00 | 67 | 1016.9 |
| 20260906122933 | 19 | 134 | 0.0 | 0.0 | 0.00 | 0.00 | 0.00 | 68 | 1016.8 |
| 20260906122428 | 19 | 134 | 0.0 | 0.0 | 0.00 | 0.00 | 0.00 | 68 | 1016.5 |
| 20260906121925 | 19 | 135 | 0.0 | 0.0 | 0.00 | 0.00 | 0.00 | 67 | 1016.7 |
| 20260906121421 | 19 | 134 | 0.0 | 0.0 | 0.00 | 0.00 | 0.00 | 67 | 1016.7 |
| 20260906120917 | 18 | 135 | 0.0 | 0.0 | 0.00 | 0.00 | 0.00 | 69 | 1016.5 |
| 20260906120412 | 18 | 135 | 0.0 | 0.0 | 0.00 | 0.00 | 0.00 | 69 | 1016.6 |
| 20260906115908 | 18 | 135 | 0.0 | 0.0 | 0.00 | 0.00 | 0.00 | 70 | 1016.5 |
| 20260906115404 | 18 | 135 | 0.0 | 0.0 | 0.00 | 0.00 | 0.00 | 70 | 1016.6 |
| 20260906114903 | 18 | 135 | 0.0 | 0.0 | 0.00 | 0.00 | 0.00 | 69 | 1016.4 |
| 20260906114358 | 18 | 135 | 0.0 | 0.0 | 0.00 | 0.00 | 0.00 | 70 | 1016.6 |
| 20260906113854 | 18 | 135 | 0.0 | 0.0 | 0.00 | 0.00 | 0.00 | 69 | 1016.5 |
| 20260906113352 | 18 | 135 | 0.0 | 0.0 | 0.00 | 0.00 | 0.00 | 70 | 1016.5 |
| 20260906112848 | 18 | 135 | 0.0 | 0.0 | 0.00 | 0.00 | 0.00 | 69 | 1016.6 |
| 20260906112343 | 19 | 137 | 0.0 | 0.0 | 0.00 | 0.00 | 0.00 | 69 | 1016.6 |
| 20260906111838 | 19 | 140 | 0.0 | 0.0 | 0.00 | 0.00 | 0.00 | 67 | 1016.8 |
| 20260906111338 | 19 | 132 | 0.0 | 0.0 | 0.00 | 0.00 | 0.00 | 67 | 1016.6 |
| 20260906110833 | 19 | 132 | 0.0 | 0.0 | 0.00 | 0.00 | 0.00 | 66 | 1016.4 |
| 20260906110329 | 19 | 132 | 0.0 | 0.0 | 0.00 | 0.00 | 0.00 | 66 | 1016.6 |
| 20260906105827 | 20 | 132 | 0.0 | 0.0 | 0.00 | 0.00 | 0.00 | 66 | 1016.6 |
| 20260906105323 | 20 | 132 | 0.0 | 0.0 | 0.00 | 0.00 | 0.00 | 66 | 1016.4 |
| 20260906104819 | 20 | 131 | 0.0 | 0.0 | 0.00 | 0.00 | 0.00 | 66 | 1016.5 |
| 20260906104318 | 20 | 132 | 0.0 | 0.0 | 0.00 | 0.00 | 0.00 | 65 | 1016.7 |
| 20260906103816 | 20 | 128 | 0.0 | 0.0 | 0.00 | 0.00 | 0.00 | 66 | 1016.7 |
| 20260906103315 | 20 | 124 | 0.0 | 0.0 | 0.00 | 0.00 | 0.00 | 66 | 1016.7 |
| 20260906102811 | 20 | 132 | 0.0 | 0.0 | 0.00 | 0.00 | 0.00 | 66 | 1016.6 |
| 20260906102310 | 20 | 131 | 0.0 | 0.0 | 0.00 | 0.00 | 0.00 | 67 | 1016.5 |
| 20260906101805 | 20 | 112 | 0.0 | 0.0 | 0.00 | 0.00 | 0.00 | 67 | 1016.7 |
| 20260906101300 | 20 | 132 | 0.0 | 0.0 | 0.00 | 0.00 | 0.00 | 68 | 1016.7 |
| 20260906100756 | 20 | 131 | 0.0 | 0.0 | 0.00 | 0.00 | 0.00 | 69 | 1016.6 |
| 20260906100255 | 19 | 132 | 0.0 | 0.0 | 0.00 | 0.00 | 0.00 | 70 | 1016.5 |
| 20260906095750 | 19 | 120 | 0.0 | 0.0 | 0.00 | 0.00 | 0.00 | 70 | 1016.6 |
| 20260906095245 | 19 | 139 | 0.0 | 0.0 | 0.00 | 0.00 | 0.00 | 70 | 1016.5 |
| 20260906094744 | 19 | 140 | 0.0 | 0.0 | 0.00 | 0.00 | 0.00 | 70 | 1016.8 |
| 20260906094240 | 19 | 153 | 0.0 | 0.0 | 0.00 | 0.00 | 0.00 | 70 | 1016.6 |
| 20260906093736 | 19 | 152 | 0.0 | 0.0 | 0.00 | 0.00 | 0.00 | 69 | 1016.6 |
| 20260906093231 | 19 | 136 | 0.0 | 0.0 | 0.00 | 0.00 | 0.00 | 69 | 1016.7 |
| 20260906092727 | 19 | 152 | 0.0 | 0.0 | 0.00 | 0.00 | 0.00 | 69 | 1016.7 |
| 20260906092226 | 19 | 146 | 0.0 | 0.0 | 0.00 | 0.00 | 0.00 | 70 | 1016.8 |
| 20260906091722 | 19 | 142 | 0.0 | 0.0 | 0.00 | 0.00 | 0.00 | 70 | 1016.9 |
| 20260906091218 | 19 | 168 | 0.0 | 0.0 | 0.00 | 0.00 | 0.00 | 70 | 1016.8 |
| 20260906090715 | 19 | 131 | 0.0 | 0.0 | 0.00 | 0.00 | 0.00 | 71 | 1016.9 |
| 20260906090214 | 18 | 131 | 0.0 | 0.0 | 0.00 | 0.00 | 0.00 | 71 | 1017.0 |
| 20260906085713 | 18 | 147 | 0.0 | 0.0 | 0.00 | 0.00 | 0.00 | 71 | 1016.9 |
| 20260906085212 | 18 | 131 | 0.0 | 0.0 | 0.00 | 0.00 | 0.00 | 72 | 1016.9 |
| 20260906084707 | 18 | 147 | 0.0 | 0.0 | 0.00 | 0.00 | 0.00 | 72 | 1017.0 |
| 20260906084201 | 18 | 155 | 0.0 | 0.0 | 0.00 | 0.00 | 0.00 | 72 | 1016.8 |
| 20260906083656 | 18 | 159 | 0.0 | 0.0 | 0.00 | 0.00 | 0.00 | 73 | 1017.0 |
| 20260906083151 | 18 | 166 | 0.0 | 0.0 | 0.00 | 0.00 | 0.00 | 74 | 1016.8 |
| 20260906082646 | 18 | 140 | 0.0 | 0.0 | 0.00 | 0.00 | 0.00 | 74 | 1016.9 |
| 20260906082142 | 18 | 140 | 0.0 | 0.0 | 0.00 | 0.00 | 0.00 | 75 | 1017.3 |
| 20260906081637 | 18 | 156 | 0.0 | 0.0 | 0.00 | 0.00 | 0.00 | 75 | 1017.3 |
| 20260906081132 | 17 | 143 | 0.0 | 0.0 | 0.00 | 0.00 | 0.00 | 76 | 1017.0 |
| 20260906080628 | 18 | 143 | 0.0 | 0.0 | 0.00 | 0.00 | 0.00 | 76 | 1017.1 |
| 20260906080125 | 18 | 143 | 0.0 | 0.0 | 0.00 | 0.00 | 0.00 | 75 | 1017.1 |
| 20260906075624 | 18 | 145 | 0.0 | 0.0 | 0.00 | 0.00 | 0.00 | 75 | 1017.3 |
| 20260906075118 | 18 | 145 | 0.0 | 0.0 | 0.00 | 0.00 | 0.00 | 74 | 1017.1 |
| 20260906074615 | 18 | 144 | 0.0 | 0.0 | 0.00 | 0.00 | 0.00 | 73 | 1017.2 |
| 20260906074113 | 18 | 144 | 0.0 | 0.0 | 0.00 | 0.00 | 0.00 | 72 | 1017.4 |
| 20260906073608 | 18 | 144 | 0.0 | 0.0 | 0.00 | 0.00 | 0.00 | 72 | 1017.3 |
| 20260906073104 | 18 | 157 | 0.0 | 0.0 | 0.00 | 0.00 | 0.00 | 72 | 1017.1 |
| 20260906072558 | 18 | 157 | 0.0 | 0.0 | 0.00 | 0.00 | 0.00 | 74 | 1017.2 |
| 20260906072054 | 18 | 167 | 0.0 | 0.0 | 0.00 | 0.00 | 0.00 | 75 | 1017.0 |
| 20260906071551 | 18 | 152 | 0.0 | 0.0 | 0.00 | 0.00 | 0.00 | 78 | 1017.2 |
| 20260906071045 | 18 | 152 | 0.0 | 0.0 | 0.00 | 0.00 | 0.00 | 78 | 1017.2 |
| 20260906070542 | 18 | 153 | 0.0 | 0.0 | 0.00 | 0.00 | 0.00 | 78 | 1017.2 |
| 20260906070037 | 18 | 155 | 0.0 | 0.0 | 0.00 | 0.00 | 0.00 | 78 | 1017.3 |
| 20260906065537 | 18 | 155 | 0.0 | 0.0 | 0.00 | 0.00 | 0.00 | 78 | 1017.3 |
| 20260906065032 | 17 | 155 | 0.0 | 0.0 | 0.00 | 0.00 | 0.00 | 79 | 1017.2 |
| 20260906064528 | 17 | 155 | 0.0 | 0.0 | 0.00 | 0.00 | 0.00 | 79 | 1017.3 |
| 20260906064022 | 17 | 146 | 0.0 | 0.0 | 0.00 | 0.00 | 0.00 | 81 | 1017.0 |
| 20260906063518 | 17 | 146 | 0.0 | 0.0 | 0.00 | 0.00 | 0.00 | 81 | 1017.3 |
| 20260906063014 | 17 | 137 | 0.0 | 0.0 | 0.00 | 0.00 | 0.00 | 82 | 1017.3 |
| 20260906062508 | 17 | 152 | 0.0 | 0.0 | 0.00 | 0.00 | 0.00 | 83 | 1017.5 |
| 20260906061958 | 17 | 152 | 0.0 | 0.0 | 0.00 | 0.00 | 0.00 | 83 | 1017.4 |
| 20260906061453 | 17 | 152 | 0.0 | 0.0 | 0.00 | 0.00 | 0.00 | 83 | 1017.5 |
| 20260906060948 | 17 | 136 | 0.0 | 0.0 | 0.00 | 0.00 | 0.00 | 83 | 1017.4 |
| 20260906060445 | 18 | 151 | 0.0 | 0.0 | 0.00 | 0.00 | 0.00 | 82 | 1017.2 |
| 20260906055941 | 18 | 151 | 0.0 | 0.0 | 0.00 | 0.00 | 0.00 | 82 | 1017.2 |
| 20260906055437 | 18 | 157 | 0.0 | 0.0 | 0.00 | 0.00 | 0.00 | 82 | 1017.3 |
| 20260906054932 | 18 | 159 | 0.0 | 0.0 | 0.00 | 0.00 | 0.00 | 82 | 1017.2 |
| 20260906054427 | 18 | 159 | 0.0 | 0.0 | 0.00 | 0.00 | 0.00 | 81 | 1017.3 |
| 20260906053922 | 18 | 162 | 0.0 | 0.0 | 0.00 | 0.00 | 0.00 | 82 | 1017.2 |
| 20260906053419 | 18 | 162 | 0.0 | 0.0 | 0.00 | 0.00 | 0.00 | 81 | 1017.4 |
| 20260906052914 | 18 | 162 | 0.0 | 0.0 | 0.00 | 0.00 | 0.00 | 81 | 1017.2 |
| 20260906052410 | 18 | 162 | 0.0 | 0.0 | 0.00 | 0.00 | 0.00 | 80 | 1017.4 |
| 20260906051907 | 18 | 162 | 0.0 | 0.0 | 0.00 | 0.00 | 0.00 | 79 | 1017.4 |
| 20260906051407 | 18 | 162 | 0.0 | 0.0 | 0.00 | 0.00 | 0.00 | 78 | 1017.4 |
| 20260906050903 | 18 | 162 | 0.0 | 0.0 | 0.00 | 0.00 | 0.00 | 79 | 1017.5 |
| 20260906050357 | 18 | 159 | 0.0 | 0.0 | 0.00 | 0.00 | 0.00 | 77 | 1017.5 |
| 20260906045855 | 18 | 162 | 0.0 | 0.0 | 0.00 | 0.00 | 0.00 | 78 | 1017.6 |
| 20260906045355 | 18 | 161 | 0.0 | 0.0 | 0.00 | 0.00 | 0.00 | 77 | 1017.8 |
| 20260906044851 | 18 | 162 | 0.0 | 0.0 | 0.00 | 0.00 | 0.00 | 78 | 1017.6 |
| 20260906044351 | 18 | 162 | 0.0 | 0.0 | 0.00 | 0.00 | 0.00 | 77 | 1017.9 |
| 20260906043847 | 18 | 162 | 0.0 | 0.0 | 0.00 | 0.00 | 0.00 | 76 | 1017.9 |
| 20260906043343 | 18 | 162 | 0.0 | 0.0 | 0.00 | 0.00 | 0.00 | 77 | 1017.5 |
| 20260906042838 | 18 | 163 | 0.0 | 0.0 | 0.00 | 0.00 | 0.00 | 78 | 1017.6 |
| 20260906042336 | 19 | 161 | 0.0 | 0.0 | 0.00 | 0.00 | 0.00 | 77 | 1017.7 |
| 20260906041832 | 19 | 165 | 0.0 | 0.0 | 0.00 | 0.00 | 0.00 | 78 | 1017.8 |
| 20260906041328 | 19 | 173 | 0.0 | 0.0 | 0.00 | 0.00 | 0.00 | 79 | 1017.7 |
| 20260906040828 | 19 | 169 | 0.0 | 0.0 | 0.00 | 0.00 | 0.00 | 78 | 1017.5 |
| 20260906040323 | 19 | 155 | 0.0 | 0.0 | 0.00 | 0.00 | 0.00 | 77 | 1017.6 |
| 20260906035819 | 20 | 161 | 0.0 | 0.0 | 0.00 | 0.00 | 0.00 | 77 | 1017.4 |
| 20260906035314 | 20 | 175 | 0.0 | 0.0 | 0.00 | 0.00 | 0.00 | 78 | 1017.5 |
| 20260906034809 | 20 | 176 | 0.0 | 1.6 | 0.00 | 0.00 | 0.00 | 78 | 1017.4 |
| 20260906034304 | 20 | 171 | 0.0 | 0.0 | 0.00 | 0.00 | 0.00 | 78 | 1017.3 |
| 20260906033800 | 20 | 171 | 0.0 | 0.0 | 0.00 | 0.00 | 0.00 | 76 | 1017.3 |
| 20260906033259 | 20 | 163 | 0.0 | 0.0 | 0.00 | 0.00 | 0.00 | 75 | 1017.3 |
| 20260906032756 | 20 | 155 | 0.0 | 0.0 | 0.00 | 0.00 | 0.00 | 73 | 1017.0 |
| 20260906032255 | 20 | 155 | 0.0 | 0.0 | 0.00 | 0.00 | 0.00 | 74 | 1017.2 |
| 20260906031750 | 20 | 156 | 0.0 | 0.0 | 0.00 | 0.00 | 0.00 | 74 | 1017.1 |
| 20260906031247 | 20 | 153 | 0.0 | 0.0 | 0.00 | 0.00 | 0.00 | 74 | 1017.2 |
| 20260906030740 | 20 | 151 | 0.0 | 0.0 | 0.00 | 0.00 | 0.00 | 72 | 1017.2 |
| 20260906030235 | 20 | 151 | 0.0 | 0.0 | 0.00 | 0.00 | 0.00 | 72 | 1017.0 |
| 20260906025734 | 20 | 157 | 0.0 | 0.0 | 0.00 | 0.00 | 0.00 | 73 | 1017.0 |
| 20260906025230 | 21 | 157 | 0.0 | 0.0 | 0.00 | 0.00 | 0.00 | 73 | 1017.2 |
| 20260906024728 | 21 | 157 | 0.0 | 0.0 | 0.00 | 0.00 | 0.00 | 71 | 1017.1 |
| 20260906024227 | 21 | 162 | 0.0 | 0.0 | 0.00 | 0.00 | 0.00 | 71 | 1017.0 |
| 20260906023723 | 21 | 157 | 0.0 | 0.0 | 0.00 | 0.00 | 0.00 | 70 | 1017.1 |
| 20260906023218 | 21 | 184 | 0.0 | 0.0 | 0.00 | 0.00 | 0.00 | 70 | 1016.9 |
| 20260906022714 | 21 | 165 | 0.0 | 1.6 | 0.00 | 0.00 | 0.00 | 70 | 1016.8 |
| 20260906022209 | 22 | 162 | 0.0 | 1.6 | 0.00 | 0.00 | 0.00 | 69 | 1016.8 |
| 20260906021705 | 22 | 178 | 0.0 | 1.6 | 0.00 | 0.00 | 0.00 | 68 | 1017.2 |
| 20260906021203 | 22 | 132 | 0.0 | 0.0 | 0.00 | 0.00 | 0.00 | 67 | 1016.9 |
| 20260906020658 | 22 | 147 | 0.0 | 1.6 | 0.00 | 0.00 | 0.00 | 65 | 1017.0 |
| 20260906020153 | 22 | 139 | 0.0 | 1.6 | 0.00 | 0.00 | 0.00 | 65 | 1016.9 |
| 20260906015648 | 23 | 133 | 0.0 | 0.0 | 0.00 | 0.00 | 0.00 | 64 | 1016.9 |
| 20260906015146 | 23 | 140 | 0.0 | 4.8 | 0.00 | 0.00 | 0.00 | 63 | 1017.0 |
| 20260906014641 | 23 | 73 | 1.6 | 1.6 | 0.00 | 0.00 | 0.00 | 61 | 1016.6 |
| 20260906014137 | 23 | 48 | 1.6 | 4.8 | 0.00 | 0.00 | 0.00 | 59 | 1016.7 |
| 20260906013633 | 23 | 47 | 0.0 | 3.2 | 0.00 | 0.00 | 0.00 | 58 | 1016.7 |
| 20260906013128 | 24 | 228 | 1.6 | 4.8 | 0.00 | 0.00 | 0.00 | 56 | 1016.8 |
| 20260906012627 | 25 | 7 | 3.2 | 4.8 | 0.00 | 0.00 | 0.00 | 54 | 1016.7 |
| 20260906012122 | 25 | 185 | 1.6 | 4.8 | 0.00 | 0.00 | 0.00 | 52 | 1016.8 |
| 20260906011618 | 26 | 133 | 0.0 | 3.2 | 0.00 | 0.00 | 0.00 | 51 | 1016.5 |
| 20260906011113 | 26 | 277 | 4.8 | 6.4 | 0.00 | 0.00 | 0.00 | 49 | 1016.9 |
| 20260906010608 | 26 | 186 | 1.6 | 1.6 | 0.00 | 0.00 | 0.00 | 47 | 1016.6 |
| 20260906010104 | 26 | 151 | 3.2 | 6.4 | 0.00 | 0.00 | 0.00 | 46 | 1016.9 |
| 20260906005603 | 27 | 230 | 3.2 | 4.8 | 0.00 | 0.00 | 0.00 | 44 | 1016.8 |
| 20260906005102 | 27 | 274 | 8.0 | 9.7 | 0.00 | 0.00 | 0.00 | 44 | 1016.8 |
| 20260906004556 | 27 | 262 | 3.2 | 4.8 | 0.00 | 0.00 | 0.00 | 44 | 1016.7 |
| 20260906004051 | 27 | 241 | 1.6 | 3.2 | 0.00 | 0.00 | 0.00 | 44 | 1016.6 |
| 20260906003546 | 28 | 158 | 1.6 | 9.7 | 0.00 | 0.00 | 0.00 | 43 | 1016.4 |
| 20260906003042 | 28 | 142 | 1.6 | 6.4 | 0.00 | 0.00 | 0.00 | 42 | 1016.4 |
| 20260906002537 | 28 | 251 | 3.2 | 4.8 | 0.00 | 0.00 | 0.00 | 42 | 1016.3 |
| 20260906002032 | 28 | 212 | 3.2 | 6.4 | 0.00 | 0.00 | 0.00 | 42 | 1016.7 |
| 20260906001527 | 28 | 161 | 0.0 | 3.2 | 0.00 | 0.00 | 0.00 | 42 | 1016.4 |
| 20260906001021 | 28 | 77 | 3.2 | 12.9 | 0.00 | 0.00 | 0.00 | 41 | 1016.4 |
| 20260906000518 | 28 | 287 | 1.6 | 6.4 | 0.00 | 0.00 | 0.00 | 40 | 1016.5 |
| 20260906000018 | 28 | 196 | 1.6 | 3.2 | 0.00 | 0.00 | 0.00 | 39 | 1016.3 |
| 20260905235512 | 29 | 303 | 6.4 | 9.7 | 0.00 | 0.00 | 0.00 | 39 | 1016.4 |
| 20260905235007 | 29 | 283 | 1.6 | 6.4 | 0.00 | 0.00 | 0.00 | 38 | 1016.5 |
| 20260905234502 | 29 | 230 | 3.2 | 9.7 | 0.00 | 0.00 | 0.00 | 40 | 1016.5 |
| 20260905233956 | 29 | 256 | 4.8 | 9.7 | 0.00 | 0.00 | 0.00 | 40 | 1016.3 |
| 20260905233452 | 29 | 155 | 1.6 | 6.4 | 0.00 | 0.00 | 0.00 | 41 | 1016.5 |
| 20260905232950 | 29 | 229 | 3.2 | 6.4 | 0.00 | 0.00 | 0.00 | 41 | 1016.5 |
| 20260905232447 | 29 | 109 | 1.6 | 11.3 | 0.00 | 0.00 | 0.00 | 43 | 1016.5 |
| 20260905231943 | 29 | 231 | 3.2 | 6.4 | 0.00 | 0.00 | 0.00 | 42 | 1016.6 |
| 20260905231438 | 30 | 175 | 6.4 | 12.9 | 0.00 | 0.00 | 0.00 | 43 | 1016.2 |
| 20260905230934 | 30 | 293 | 4.8 | 6.4 | 0.00 | 0.00 | 0.00 | 43 | 1016.5 |
| 20260905230433 | 30 | 207 | 1.6 | 6.4 | 0.00 | 0.00 | 0.00 | 45 | 1016.4 |
| 20260905225931 | 30 | 189 | 3.2 | 12.9 | 0.00 | 0.00 | 0.00 | 44 | 1016.6 |
| 20260905225426 | 30 | 297 | 6.4 | 6.4 | 0.00 | 0.00 | 0.00 | 42 | 1016.5 |
| 20260905224921 | 30 | 357 | 3.2 | 6.4 | 0.00 | 0.00 | 0.00 | 41 | 1016.4 |
| 20260905224417 | 30 | 19 | 1.6 | 4.8 | 0.00 | 0.00 | 0.00 | 42 | 1016.5 |
| 20260905223917 | 30 | 317 | 9.7 | 11.3 | 0.00 | 0.00 | 0.00 | 42 | 1016.5 |
| 20260905223415 | 30 | 167 | 1.6 | 6.4 | 0.00 | 0.00 | 0.00 | 42 | 1016.6 |
| 20260905222915 | 30 | 205 | 4.8 | 14.5 | 0.00 | 0.00 | 0.00 | 42 | 1016.6 |
| 20260905222414 | 30 | 113 | 3.2 | 11.3 | 0.00 | 0.00 | 0.00 | 40 | 1016.6 |
| 20260905221910 | 30 | 6 | 4.8 | 11.3 | 0.00 | 0.00 | 0.00 | 43 | 1016.7 |
| 20260905221407 | 31 | 137 | 0.0 | 3.2 | 0.00 | 0.00 | 0.00 | 45 | 1016.7 |
| 20260905220902 | 30 | 153 | 1.6 | 3.2 | 0.00 | 0.00 | 0.00 | 46 | 1016.8 |
| 20260905220358 | 31 | 111 | 1.6 | 4.8 | 0.00 | 0.00 | 0.00 | 46 | 1016.9 |
| 20260905215857 | 30 | 159 | 3.2 | 11.3 | 0.00 | 0.00 | 0.00 | 47 | 1017.0 |
| 20260905215353 | 30 | 127 | 0.0 | 3.2 | 0.00 | 0.00 | 0.00 | 49 | 1016.8 |
| 20260905214849 | 30 | 49 | 1.6 | 9.7 | 0.00 | 0.00 | 0.00 | 48 | 1016.8 |
| 20260905214344 | 30 | 230 | 3.2 | 11.3 | 0.00 | 0.00 | 0.00 | 49 | 1017.0 |
| 20260905213839 | 30 | 167 | 4.8 | 12.9 | 0.00 | 0.00 | 0.00 | 49 | 1016.9 |
| 20260905213336 | 30 | 229 | 1.6 | 4.8 | 0.00 | 0.00 | 0.00 | 49 | 1016.9 |
| 20260905212835 | 30 | 81 | 1.6 | 4.8 | 0.00 | 0.00 | 0.00 | 51 | 1017.0 |
| 20260905212330 | 30 | 265 | 3.2 | 14.5 | 0.00 | 0.00 | 0.00 | 50 | 1016.9 |
| 20260905211824 | 30 | 76 | 0.0 | 3.2 | 0.00 | 0.00 | 0.00 | 51 | 1017.1 |
| 20260905211320 | 30 | 59 | 1.6 | 14.5 | 0.00 | 0.00 | 0.00 | 51 | 1017.0 |
| 20260905210817 | 30 | 45 | 0.0 | 6.4 | 0.00 | 0.00 | 0.00 | 50 | 1017.2 |
| 20260905210316 | 30 | 230 | 3.2 | 11.3 | 0.00 | 0.00 | 0.00 | 48 | 1017.3 |
| 20260905205815 | 30 | 233 | 3.2 | 9.7 | 0.00 | 0.00 | 0.00 | 49 | 1017.1 |
| 20260905205310 | 30 | 99 | 3.2 | 9.7 | 0.00 | 0.00 | 0.00 | 48 | 1017.3 |
| 20260905204809 | 30 | 5 | 1.6 | 6.4 | 0.00 | 0.00 | 0.00 | 47 | 1017.2 |
| 20260905204305 | 30 | 114 | 0.0 | 6.4 | 0.00 | 0.00 | 0.00 | 47 | 1017.3 |
| 20260905203804 | 30 | 221 | 6.4 | 12.9 | 0.00 | 0.00 | 0.00 | 46 | 1017.4 |
| 20260905203300 | 30 | 65 | 0.0 | 9.7 | 0.00 | 0.00 | 0.00 | 46 | 1017.4 |
| 20260905202755 | 30 | 48 | 1.6 | 6.4 | 0.00 | 0.00 | 0.00 | 44 | 1017.3 |
| 20260905202250 | 30 | 167 | 0.0 | 3.2 | 0.00 | 0.00 | 0.00 | 45 | 1017.6 |
| 20260905201745 | 30 | 5 | 1.6 | 6.4 | 0.00 | 0.00 | 0.00 | 46 | 1017.5 |
| 20260905201240 | 30 | 47 | 1.6 | 11.3 | 0.00 | 0.00 | 0.00 | 45 | 1017.5 |
| 20260905200736 | 30 | 146 | 1.6 | 12.9 | 0.00 | 0.00 | 0.00 | 45 | 1017.6 |
| 20260905200231 | 31 | 200 | 1.6 | 11.3 | 0.00 | 0.00 | 0.00 | 45 | 1017.6 |
| 20260905195729 | 31 | 240 | 4.8 | 11.3 | 0.00 | 0.00 | 0.00 | 43 | 1017.5 |
| 20260905195224 | 31 | 271 | 3.2 | 9.7 | 0.00 | 0.00 | 0.00 | 43 | 1017.8 |
| 20260905194720 | 31 | 124 | 0.0 | 6.4 | 0.00 | 0.00 | 0.00 | 41 | 1017.8 |
| 20260905194219 | 31 | 231 | 6.4 | 6.4 | 0.00 | 0.00 | 0.00 | 41 | 1017.7 |
| 20260905193713 | 31 | 87 | 1.6 | 3.2 | 0.00 | 0.00 | 0.00 | 34 | 1017.8 |
| 20260905193208 | 30 | 144 | 3.2 | 3.2 | 0.00 | 0.00 | 0.00 | 35 | 1017.8 |
| 20260905192704 | 30 | 108 | 1.6 | 1.6 | 0.00 | 0.00 | 0.00 | 38 | 1017.8 |
| 20260905192200 | 30 | 95 | 0.0 | 1.6 | 0.00 | 0.00 | 0.00 | 38 | 1018.0 |
| 20260905191700 | 30 | 61 | 1.6 | 4.8 | 0.00 | 0.00 | 0.00 | 38 | 1018.1 |
| 20260905191157 | 30 | 102 | 1.6 | 4.8 | 0.00 | 0.00 | 0.00 | 39 | 1018.0 |
| 20260905190657 | 30 | 147 | 0.0 | 6.4 | 0.00 | 0.00 | 0.00 | 40 | 1018.1 |
| 20260905190156 | 30 | 122 | 1.6 | 3.2 | 0.00 | 0.00 | 0.00 | 40 | 1018.1 |
| 20260905185655 | 30 | 157 | 1.6 | 3.2 | 0.00 | 0.00 | 0.00 | 40 | 1018.2 |
| 20260905185149 | 29 | 70 | 1.6 | 3.2 | 0.00 | 0.00 | 0.00 | 39 | 1018.5 |
| 20260905184649 | 29 | 146 | 0.0 | 0.0 | 0.00 | 0.00 | 0.00 | 40 | 1018.5 |
| 20260905184148 | 28 | 126 | 0.0 | 1.6 | 0.00 | 0.00 | 0.00 | 39 | 1018.2 |
| 20260905183642 | 28 | 43 | 0.0 | 1.6 | 0.00 | 0.00 | 0.00 | 40 | 1018.4 |
| 20260905183137 | 28 | 140 | 1.6 | 4.8 | 0.00 | 0.00 | 0.00 | 41 | 1018.3 |
| 20260905182636 | 28 | 166 | 0.0 | 3.2 | 0.00 | 0.00 | 0.00 | 39 | 1018.5 |
| 20260905182131 | 28 | 150 | 1.6 | 9.7 | 0.00 | 0.00 | 0.00 | 40 | 1018.6 |
| 20260905181626 | 28 | 85 | 0.0 | 1.6 | 0.00 | 0.00 | 0.00 | 42 | 1018.6 |
| 20260905181125 | 28 | 70 | 3.2 | 6.4 | 0.00 | 0.00 | 0.00 | 41 | 1018.7 |
| 20260905180620 | 27 | 65 | 1.6 | 3.2 | 0.00 | 0.00 | 0.00 | 43 | 1018.7 |
| 20260905180115 | 27 | 98 | 1.6 | 3.2 | 0.00 | 0.00 | 0.00 | 42 | 1018.7 |
| 20260905175615 | 27 | 157 | 0.0 | 1.6 | 0.00 | 0.00 | 0.00 | 43 | 1018.7 |
| 20260905175110 | 27 | 105 | 3.2 | 6.4 | 0.00 | 0.00 | 0.00 | 43 | 1018.6 |